Regional Weather Roundup
Issued by NWS

Home | Current Version | Previous Version | Graphics & Text | Print | Product List | Glossary On
Versions: 1 2 3 4 5 6 7 8 9 10 11 12 13 14 15 16 17 18 19 20 21 22 23 24 25 26 27 28 29 30 31 32 33 34 35 36 37 38 39 40 41 42 43 44 45 46 47 48 49 50
000
ASUS43 KFSD 240702
RWRSD

WEATHER ROUNDUP FOR SOUTH DAKOTA
NATIONAL WEATHER SERVICE SIOUX FALLS SD
100 AM CST SAT FEB 24 2018

NOTE: "FAIR" INDICATES FEW OR NO CLOUDS BELOW 12,000 FEET WITH NO
SIGNIFICANT WEATHER AND/OR OBSTRUCTIONS TO VISIBILITY.


SDZ001>005-009-010-012>017-240800-
NORTHWEST AND NORTH CENTRAL SOUTH DAKOTA

CITY           SKY/WX    TMP DP  RH WIND       PRES   REMARKS
BUFFALO          N/A      3  -3  76 S7        29.83F WCI  -9
FAITH            N/A     -2  -5  87 S21       29.98F WCI -25
MOBRIDGE       PTCLDY    -5  -9  83 SE6       30.06F WCI -18
$$

SDZ012>016-024>037-041>051-057-063-072>074-240800-
SOUTHWEST AND SOUTH CENTRAL SOUTH DAKOTA

CITY           SKY/WX    TMP DP  RH WIND       PRES   REMARKS
RAPID CTY ARPT PTCLDY    13   4  67 CALM      29.92F
PIERRE         CLOUDY    -3  -5  90 NE3       30.12F
CUSTER         CLOUDY    17   1  49 SW5       29.83F WCI  10
ELLSWORTH AFB  PTCLDY    15   4  63 S16       29.91F WCI  -1
PHILIP         CLOUDY    -4  -8  83 E3        30.05F
PINE RIDGE     CLOUDY    14  10  84 S5        29.97F WCI   6
SPEARFISH        N/A     16   5  62 SW8       29.86F WCI   5
WINNER         FAIR      13   8  81 SE10      30.10F WCI   0
$$

SDZ004>011-016>023-039-040-240800-
NORTHEAST SOUTH DAKOTA

CITY           SKY/WX    TMP DP  RH WIND       PRES   REMARKS
ABERDEEN       ICE FOG  -11 -15  82 CALM      30.18F VSB 1/4
WATERTOWN      FOG       -4  -6  91 N5        30.16F VSB 1/4 WCI -15
BROOKINGS      CLOUDY     6   3  87 CALM      30.19F FOG
SISSETON         N/A     -2  -4  91 E3        30.20F
$$

SDZ017-020-022-023-036>040-048>070-240800-
SOUTHEAST SOUTH DAKOTA

CITY           SKY/WX    TMP DP  RH WIND       PRES   REMARKS
SIOUX FALLS    FOG       15  13  91 NE7       30.21F VSB 1/4 WCI   5
HURON          CLOUDY    -4  -7  87 CALM      30.19F FOG
CHAMBERLAIN    PTCLDY     4   2  90 CALM      30.14F
MITCHELL       CLOUDY    -1  -4  87 SE3       30.22F FOG
YANKTON        SNOW      14  12  92 E8        30.22F VSB 1/4 WCI   3
$$

ABBREVIATIONS USED IN REMARKS
   TC - TEMPERATURE IN CELSIUS
  WCI - WIND CHILL INDEX
   HX - HEAT INDEX
  VSB - VISIBILITY





USA.gov is the U.S. government's official web portal to all federal, state and local government web resources and services.